Regional Weather Roundup
Issued by NWS

Home | Current Version | Previous Version | Graphics & Text | Print | Product List | Glossary On
Versions: 1 2 3 4 5 6 7 8 9 10 11 12 13 14 15 16 17 18 19 20 21 22 23 24 25 26 27 28 29 30 31 32 33 34 35 36 37 38 39 40 41 42 43 44 45 46 47 48 49 50
000
ASUS43 KLOT 222200
RWRIL

ILLINOIS REGIONAL WEATHER ROUNDUP
NATIONAL WEATHER SERVICE CHICAGO/ROMEOVILLE IL
500 PM CDT FRI AUG 22 2014

NOTE: "FAIR" INDICATES FEW OR NO CLOUDS BELOW 12,000 FEET WITH NO
SIGNIFICANT WEATHER AND/OR OBSTRUCTIONS TO VISIBILITY.

* THESE STATIONS ARE NOT UNDER NWS QUALITY CONTROL. THEY ALSO MAY NOT
  REPORT WEATHER SUCH AS PRECIPITATION OR FOG.

ILZ001-002-007-009-015-016-024-222300-
NORTHWEST ILLINOIS

CITY           SKY/WX    TMP DP  RH WIND       PRES   REMARKS
MOLINE         SUNNY     88  73  61 S6        29.91F HX  95
STERLING*      MOSUNNY   86  75  70 NW5       29.93F HX  95
$$

ILZ003-004-008-010-011-017-018-222300-
NORTH CENTRAL ILLINOIS

CITY           SKY/WX    TMP DP  RH WIND       PRES   REMARKS
ROCKFORD       PTSUNNY   82  74  76 SW7       29.95R HX  88
ROCHELLE*      PTSUNNY   82  73  73 NW6       29.95S HX  87
$$

ILZ005-006-012>014-019>023-222300-
NORTHEAST ILLINOIS

CITY           SKY/WX    TMP DP  RH WIND       PRES   REMARKS
CHICAGO-OHARE  PTSUNNY   86  70  58 SW5       29.92S HX  90
CHICAGO-MIDWAY PTSUNNY   86  72  62 W9        29.93R HX  92
AURORA         CLOUDY    82  73  74 NW7       29.95S HX  87
WAUKEGAN       SUNNY     79  72  79 E9        29.93R HX  82
DUPAGE AIRPORT MOSUNNY   84  74  71 W9        29.94R HX  91
WHEELING       CLOUDY    83  75  77 NE7       29.94R HX  90
NORTHERLY ISL    N/A     78  73  84 NE2         N/A  HX  81
$$

LMZ740>746-222300-
SOUTHERN LAKE MICHIGAN

STATION/POSITION SKY/WX   TEMP    WIND        PRES    VSBY  WAVE
                          AIR SEA DIR/SP/G                  HT/PER
                          (F)     (DEG/KT/KT) (MB)    (MI)  (FT/S)
SOUTHERN BUOY              72 72  110/  4/  4 1013.7F         0
WAUKEGAN HARBOR            77        CALM       N/A
HARRISON CRIB              76      90/  7/  7   N/A
BURNHAM HARBOR             78      50/  3/ 11   N/A
CALUMET HARBOR             84     230/  7/ 12 1012.3R
MICHIGAN CITY              79     350/  3/  4   N/A
MICHIGAN CITY 6N           80 72   40/  2/  2   N/A           0
ST. JOSEPH                 76 72  260/  6/  8   N/A           0
$$

ILZ025>027-034>036-040-047-049-050-058-095>099-222300-
WEST-CENTRAL ILLINOIS

CITY           SKY/WX    TMP DP  RH WIND       PRES   REMARKS
QUINCY         PTSUNNY   87  75  67 S8        29.93S HX  96
MACOMB*        MOSUNNY   85  77  75 SW6       29.95S HX  96
$$

ILZ028>032-037-038-041>044-048-051>054-059>061-222300-
CENTRAL ILLINOIS

CITY           SKY/WX    TMP DP  RH WIND       PRES   REMARKS
DECATUR        MOSUNNY   87  76  69 SW10      29.95S HX  97
PEORIA         MOSUNNY   88  74  63 SW5       29.94R HX  96
SPRINGFIELD    MOSUNNY   88  76  67 SW6       29.93S HX  99
TAYLORVILLE    NOT AVBL
$$

ILZ033-039-045-046-055>057-062-063-222300-
EAST-CENTRAL ILLINOIS

CITY           SKY/WX    TMP DP  RH WIND       PRES   REMARKS
CHAMPAIGN      PTSUNNY   83  75  77 SE3       29.98R HX  90
MATTOON        PTSUNNY   84  76  76 SW6       29.96S HX  93
$$

ILZ079-100>102-222300-
SOUTHWEST ILLINOIS

CITY           SKY/WX    TMP DP  RH WIND       PRES   REMARKS
ALTON          PTSUNNY   90  81  74 S9        29.94F HX 108
BELLEVILLE     CLOUDY    88  79  75 E1        29.92F HX 103
CAHOKIA*       CLOUDY    90  78  68 S6        29.92F HX 104
$$

ILZ064>066-069>071-074>076-080>082-084>086-088>090-092>094-222300-
SOUTH-CENTRAL ILLINOIS

CITY           SKY/WX    TMP DP  RH WIND       PRES   REMARKS
CARBONDALE     MOSUNNY   91  75  59 S12       29.95F HX 101
MARION         PTSUNNY   91  77  62 S14       29.96F HX 105
MT. VERNON     CLOUDY    88  75  66 S8        29.95F HX  97
SALEM*         CLOUDY    87  78  74 SW7       29.95F HX 101
$$

ILZ067-068-072-073-078-083-087-091-222300-
SOUTHEAST ILLINOIS

CITY           SKY/WX    TMP DP  RH WIND       PRES   REMARKS
LAWRENCEVILLE  CLOUDY    85  77  77 W6        29.96R HX  95
HARRISBURG*    PTSUNNY   90  76  62 SW9       29.96F HX 101
ROBINSON*      PTSUNNY   86  78  76 CALM      29.97R HX  99
$$

ABBREVIATIONS USED IN REMARKS
   TC - TEMPERATURE IN CELSIUS
  WCI - WIND CHILL INDEX
   HX - HEAT INDEX
  VSB - VISIBILITY
$$



USA.gov is the U.S. government's official web portal to all federal, state and local government web resources and services.